TimeEST,TemperatureF,Dew PointF,Humidity,Sea Level PressureIn,VisibilityMPH,Wind Direction,Wind SpeedMPH,Gust SpeedMPH,PrecipitationIn,Events,Conditions,WindDirDegrees,DateUTC
12:56 AM,38.8,32.0,76,30.30,10.0,SSE,6.9,-,N/A,,Clear,150,2011-11-07 05:56:00
1:56 AM,38.8,32.0,76,30.32,10.0,SSE,9.2,-,N/A,,Clear,150,2011-11-07 06:56:00
2:56 AM,38.8,32.0,76,30.32,10.0,ESE,5.8,-,N/A,,Clear,120,2011-11-07 07:56:00
3:56 AM,32.9,30.0,89,30.32,10.0,SE,5.8,-,N/A,,Clear,130,2011-11-07 08:56:00
4:56 AM,31.1,29.1,92,30.34,10.0,East,3.5,-,N/A,,Clear,100,2011-11-07 09:56:00
5:56 AM,32.0,30.0,92,30.34,10.0,East,4.6,-,N/A,,Clear,90,2011-11-07 10:56:00
6:18 AM,30.2,30.2,100,30.31,10.0,East,4.6,-,N/A,,Clear,100,2011-11-07 11:18:00
7:56 AM,37.9,34.9,89,30.34,10.0,East,3.5,-,N/A,,Mostly Cloudy,90,2011-11-07 12:56:00
8:56 AM,46.9,34.0,61,30.32,10.0,South,4.6,-,N/A,,Mostly Cloudy,180,2011-11-07 13:56:00
10:56 AM,56.8,37.9,49,30.30,10.0,SW,3.5,-,N/A,,Mostly Cloudy,230,2011-11-07 15:56:00
12:56 PM,61.0,43.0,52,30.25,10.0,South,3.5,-,N/A,,Scattered Clouds,180,2011-11-07 17:56:00
1:56 PM,63.0,43.9,50,30.25,10.0,SW,3.5,-,N/A,,Partly Cloudy,230,2011-11-07 18:56:00
2:56 PM,61.9,45.0,54,30.23,10.0,South,3.5,-,N/A,,Mostly Cloudy,190,2011-11-07 19:56:00
3:56 PM,61.9,46.9,58,30.24,10.0,SSW,3.5,-,N/A,,Mostly Cloudy,210,2011-11-07 20:56:00
4:56 PM,59.0,45.9,62,30.24,10.0,Calm,Calm,-,N/A,,Mostly Cloudy,0,2011-11-07 21:56:00
5:56 PM,61.0,46.9,60,30.26,10.0,WSW,5.8,-,N/A,,Overcast,240,2011-11-07 22:56:00
6:56 PM,59.0,46.9,64,30.27,10.0,West,4.6,-,N/A,,Overcast,270,2011-11-07 23:56:00
7:56 PM,59.0,46.9,64,30.27,10.0,WSW,5.8,-,N/A,,Overcast,240,2011-11-08 00:56:00
8:56 PM,57.9,46.9,67,30.27,10.0,SW,3.5,-,N/A,,Overcast,230,2011-11-08 01:56:00
10:56 PM,54.0,46.9,77,30.27,10.0,Calm,Calm,-,N/A,,Overcast,0,2011-11-08 03:56:00
11:56 PM,54.9,46.9,75,30.27,10.0,Calm,Calm,-,N/A,,Overcast,0,2011-11-08 04:56:00